When you browse on this site, cookies collect data to enhance your experience and personalize the content and advertising you see.
Visit our Privacy Policy to learn more. By continuing to use the site, you agree to this use of cookies and data.
  • In Deutschland
  • Länderverzeichnis
  • Für 7 Tage
  • Wassertemperatur
  • Wetterkarte
  • Widgets
  • user-avatar
    Anmelden

    Stündliche Wetter Allmersbach

    Heute, 28 Februar, Freitag

    Zeit Temperatur Niederschläge Wind Luftdruck Luftfeuchtigkeit
    00:00 -4°C° 0.5 mm 8 m/S 722 mmHg 96%
    01:00 -2°C° 0 mm 7 m/S 725 mmHg 96%
    02:00 -2°C° 0.4 mm 7 m/S 726 mmHg 94%
    03:00 -2°C° 0.4 mm 6 m/S 727 mmHg 92%
    04:00 -2°C° 0.4 mm 6 m/S 728 mmHg 91%
    05:00 -2°C° 0 mm 5 m/S 729 mmHg 90%
    06:00 -2°C° 0 mm 5 m/S 730 mmHg 90%
    07:00 -2°C° 0 mm 3 m/S 731 mmHg 91%
    08:00 -2°C° 0 mm 4 m/S 732 mmHg 87%
    09:00 -1°C° 0 mm 4 m/S 732 mmHg 84%
    10:00 0°C° 0 mm 5 m/S 733 mmHg 80%
    11:00 +1°C° 0.1 mm 5 m/S 733 mmHg 77%
    12:00 +3°C° 0.1 mm 4 m/S 733 mmHg 73%
    13:00 +4°C° 0.1 mm 4 m/S 733 mmHg 69%
    14:00 +4°C° 0 mm 4 m/S 732 mmHg 69%
    15:00 +4°C° 0 mm 3 m/S 731 mmHg 69%
    16:00 +5°C° 0 mm 2 m/S 730 mmHg 69%
    17:00 +4°C° 0 mm 2 m/S 730 mmHg 74%
    18:00 +3°C° 0 mm 2 m/S 729 mmHg 78%
    19:00 +2°C° 0 mm 2 m/S 729 mmHg 83%
    20:00 +2°C° 0 mm 2 m/S 728 mmHg 80%
    21:00 +1°C° 0 mm 3 m/S 728 mmHg 77%
    22:00 +2°C° 0 mm 3 m/S 728 mmHg 74%
    23:00 +2°C° 0.2 mm 3 m/S 727 mmHg 77%

    Morgen, 29 Februar, Samstag

    Zeit Temperatur Niederschläge Wind Luftdruck Luftfeuchtigkeit
    00:00 +2°C° 0.2 mm 3 m/S 726 mmHg 79%
    01:00 +2°C° 0.2 mm 3 m/S 725 mmHg 82%
    02:00 +4°C° 0.2 mm 2 m/S 725 mmHg 84%
    03:00 +4°C° 0.2 mm 2 m/S 724 mmHg 86%
    04:00 +5°C° 0.2 mm 2 m/S 723 mmHg 89%
    05:00 +5°C° 0.2 mm 2 m/S 723 mmHg 89%
    06:00 +5°C° 0.2 mm 2 m/S 722 mmHg 89%
    07:00 +5°C° 0.2 mm 2 m/S 722 mmHg 89%
    08:00 +6°C° 0.2 mm 2 m/S 721 mmHg 85%
    09:00 +7°C° 0.2 mm 3 m/S 720 mmHg 80%
    10:00 +8°C° 0.2 mm 3 m/S 719 mmHg 76%
    11:00 +8°C° 0 mm 4 m/S 718 mmHg 72%
    12:00 +10°C° 0 mm 4 m/S 718 mmHg 68%
    13:00 +10°C° 0 mm 5 m/S 718 mmHg 64%
    14:00 +11°C° 0 mm 4 m/S 717 mmHg 68%
    15:00 +11°C° 0 mm 4 m/S 717 mmHg 71%
    16:00 +11°C° 0 mm 4 m/S 717 mmHg 75%
    17:00 +9°C° 0.7 mm 5 m/S 717 mmHg 78%
    18:00 +8°C° 0.7 mm 5 m/S 717 mmHg 81%
    19:00 +7°C° 0.7 mm 6 m/S 718 mmHg 84%
    20:00 +6°C° 1.9 mm 5 m/S 718 mmHg 85%
    21:00 +5°C° 1.9 mm 4 m/S 719 mmHg 85%
    22:00 +4°C° 1.9 mm 4 m/S 720 mmHg 86%
    23:00 +4°C° 0.1 mm 4 m/S 720 mmHg 86%

    übermorgen, 1 März, Sonntag

    Zeit Temperatur Niederschläge Wind Luftdruck Luftfeuchtigkeit
    00:00 +4°C° 0.1 mm 4 m/S 720 mmHg 87%
    01:00 +4°C° 0.1 mm 4 m/S 720 mmHg 87%
    02:00 +4°C° 0.2 mm 4 m/S 720 mmHg 88%
    03:00 +3°C° 0.2 mm 4 m/S 720 mmHg 90%
    04:00 +2°C° 0.2 mm 5 m/S 720 mmHg 91%
    05:00 +3°C° 0.2 mm 4 m/S 720 mmHg 90%
    06:00 +3°C° 0.2 mm 4 m/S 720 mmHg 88%
    07:00 +3°C° 0.2 mm 4 m/S 720 mmHg 86%
    08:00 +4°C° 0 mm 4 m/S 720 mmHg 82%
    09:00 +3°C° 0 mm 5 m/S 720 mmHg 77%
    10:00 +4°C° 0 mm 6 m/S 720 mmHg 73%
    11:00 +5°C° 0.1 mm 5 m/S 720 mmHg 72%
    12:00 +6°C° 0.1 mm 5 m/S 720 mmHg 72%
    13:00 +6°C° 0.1 mm 5 m/S 720 mmHg 71%
    14:00 +7°C° 0.1 mm 5 m/S 719 mmHg 69%
    15:00 +7°C° 0.1 mm 4 m/S 718 mmHg 67%
    16:00 +7°C° 0.1 mm 4 m/S 718 mmHg 65%
    17:00 +7°C° 0 mm 3 m/S 718 mmHg 70%
    18:00 +5°C° 0 mm 3 m/S 717 mmHg 75%
    19:00 +5°C° 0 mm 2 m/S 717 mmHg 80%
    20:00 +4°C° 0 mm 2 m/S 717 mmHg 82%
    21:00 +3°C° 0 mm 3 m/S 716 mmHg 85%
    22:00 +3°C° 0 mm 3 m/S 715 mmHg 87%
    23:00 +4°C° 0 mm 4 m/S 715 mmHg 85%

    2 März, Montag

    Zeit Temperatur Niederschläge Wind Luftdruck Luftfeuchtigkeit
    00:00 +4°C° 0 mm 4 m/S 715 mmHg 82%
    01:00 +3°C° 0 mm 5 m/S 715 mmHg 80%
    02:00 +3°C° 0 mm 5 m/S 715 mmHg 80%
    03:00 +3°C° 0 mm 4 m/S 715 mmHg 80%
    04:00 +3°C° 0 mm 4 m/S 715 mmHg 80%
    05:00 +1°C° 0 mm 4 m/S 715 mmHg 81%
    06:00 +2°C° 0 mm 3 m/S 715 mmHg 83%
    07:00 +2°C° 0 mm 2 m/S 715 mmHg 84%
    08:00 +3°C° 0 mm 3 m/S 715 mmHg 79%
    09:00 +4°C° 0 mm 4 m/S 714 mmHg 75%
    10:00 +6°C° 0 mm 5 m/S 714 mmHg 70%
    11:00 +6°C° 0.2 mm 5 m/S 714 mmHg 70%
    12:00 +7°C° 0.2 mm 6 m/S 714 mmHg 71%
    13:00 +7°C° 0.2 mm 6 m/S 714 mmHg 72%
    14:00 +7°C° 0.2 mm 5 m/S 714 mmHg 73%
    15:00 +6°C° 0.2 mm 4 m/S 714 mmHg 75%
    16:00 +7°C° 0.2 mm 3 m/S 714 mmHg 77%
    17:00 +5°C° 0 mm 3 m/S 715 mmHg 79%
    18:00 +5°C° 0 mm 2 m/S 715 mmHg 80%
    19:00 +6°C° 0 mm 1 m/S 716 mmHg 82%
    20:00 +4°C° 0 mm 2 m/S 716 mmHg 82%
    21:00 +4°C° 0 mm 2 m/S 717 mmHg 83%
    22:00 +3°C° 0 mm 2 m/S 718 mmHg 83%
    23:00 +4°C° 0 mm 1 m/S 718 mmHg 84%

    3 März, Dienstag

    Zeit Temperatur Niederschläge Wind Luftdruck Luftfeuchtigkeit
    00:00 +3°C° 0 mm 1 m/S 719 mmHg 85%
    01:00 +3°C° 0 mm 1 m/S 719 mmHg 87%
    02:00 +3°C° 0 mm 1 m/S 719 mmHg 88%
    03:00 +2°C° 0 mm 1 m/S 720 mmHg 89%
    04:00 +2°C° 0 mm 1 m/S 720 mmHg 90%
    05:00 +2°C° 0 mm 1 m/S 721 mmHg 91%
    06:00 +2°C° 0 mm 1 m/S 721 mmHg 92%
    07:00 +1°C° 0 mm 1 m/S 722 mmHg 92%
    08:00 +2°C° 0 mm 2 m/S 723 mmHg 89%
    09:00 +3°C° 0 mm 2 m/S 723 mmHg 86%
    10:00 +4°C° 0 mm 2 m/S 723 mmHg 83%
    11:00 +4°C° 0.2 mm 3 m/S 724 mmHg 77%
    12:00 +4°C° 0.2 mm 3 m/S 724 mmHg 72%
    13:00 +5°C° 0.2 mm 3 m/S 724 mmHg 66%
    14:00 +5°C° 0 mm 3 m/S 724 mmHg 65%
    15:00 +5°C° 0 mm 3 m/S 724 mmHg 63%
    16:00 +5°C° 0 mm 3 m/S 724 mmHg 61%
    17:00 +5°C° 0 mm 2 m/S 724 mmHg 66%
    18:00 +4°C° 0 mm 2 m/S 724 mmHg 71%
    19:00 +4°C° 0 mm 1 m/S 725 mmHg 76%
    20:00 +3°C° 0 mm 1 m/S 725 mmHg 78%
    21:00 +3°C° 0 mm 1 m/S 725 mmHg 79%
    22:00 +3°C° 0 mm 1 m/S 726 mmHg 81%
    23:00 +2°C° 0 mm 1 m/S 726 mmHg 82%

    4 März, Mittwoch

    Zeit Temperatur Niederschläge Wind Luftdruck Luftfeuchtigkeit
    00:00 +2°C° 0 mm 1 m/S 726 mmHg 84%
    01:00 +2°C° 0 mm 1 m/S 726 mmHg 85%
    02:00 +1°C° 0 mm 1 m/S 726 mmHg 86%
    03:00 +1°C° 0 mm 1 m/S 726 mmHg 86%
    04:00 +1°C° 0 mm 1 m/S 725 mmHg 87%
    05:00 +1°C° 0 mm 1 m/S 725 mmHg 86%
    06:00 +1°C° 0 mm 1 m/S 725 mmHg 86%
    07:00 +1°C° 0 mm 1 m/S 725 mmHg 85%
    08:00 +2°C° 0 mm 1 m/S 725 mmHg 79%
    09:00 +4°C° 0 mm 1 m/S 724 mmHg 72%
    10:00 +4°C° 0 mm 2 m/S 724 mmHg 65%
    11:00 +5°C° 0 mm 2 m/S 724 mmHg 60%
    12:00 +6°C° 0 mm 2 m/S 723 mmHg 55%
    13:00 +7°C° 0 mm 2 m/S 723 mmHg 50%
    14:00 +7°C° 0 mm 2 m/S 722 mmHg 51%
    15:00 +7°C° 0 mm 2 m/S 722 mmHg 52%
    16:00 +7°C° 0 mm 2 m/S 721 mmHg 53%
    17:00 +6°C° 0 mm 2 m/S 721 mmHg 60%
    18:00 +5°C° 0 mm 2 m/S 721 mmHg 67%
    19:00 +4°C° 0 mm 2 m/S 721 mmHg 75%
    20:00 +2°C° 0 mm 3 m/S 720 mmHg 79%
    21:00 +2°C° 0 mm 3 m/S 720 mmHg 84%
    22:00 +1°C° 0 mm 3 m/S 719 mmHg 89%
    23:00 +1°C° 0 mm 3 m/S 718 mmHg 89%
    Mehr zeigen